Location: G�migny
(47.9646°N, 1.6950°E)
Time: 19:16:46
(UTC+00:00)

YAOGAN 6 - Pass Details

Date: 24 January 2020
Orbit: 465 x 506 km, 97.0° (Epoch: 17 February)

Event Time Altitude Azimuth Distance (km) Brightness Sun altitude
Rises 18:16:43 0° 184° (S) 2,589 6.5 -16.0°
Reaches altitude 10° 18:18:54 10° 192° (SSW) 1,706 5.6 -16.4°
Maximum altitude 18:22:22 39° 262° (W) 757 4.1 -16.9°
Drops below altitude 10° 18:25:51 10° 333° (NNW) 1,703 5.5 -17.5°
Sets 18:28:01 0° 341° (NNW) 2,584 6.4 -17.9°
